Regional Weather Roundup
Issued by NWS

Home | Current Version | Previous Version | Graphics & Text | Print | Product List | Glossary On
Versions: 1 2 3 4 5 6 7 8 9 10 11 12 13 14 15 16 17 18 19 20 21 22 23 24 25 26 27 28 29 30 31 32 33 34 35 36 37 38 39 40 41 42 43 44 45 46 47 48 49 50
000
ASUS43 KLMK 220802
RWRKY
KENTUCKY REGIONAL WEATHER ROUNDUP
NATIONAL WEATHER SERVICE LOUISVILLE KY
400 AM EDT WED OCT 22 2014

NOTE "FAIR" INDICATES FEW OR NO CLOUDS BELOW 12,000 FEET
WITH NO SIGNIFICANT WEATHER AND/OR OBSTRUCTIONS TO VISIBILITY.

KYZ001>023-026-027-061>063-070>075-220900-
WESTERN AND SOUTH CENTRAL KENTUCKY

CITY           SKY/WX    TMP DP  RH WIND       PRES   REMARKS
PADUCAH        CLEAR     45  41  86 NE3       30.18R
HENDERSON      CLEAR    N/A N/A N/A NE7       30.21R
OWENSBORO      CLEAR     47  43  86 NE7       30.20R
HOPKINSVILLE   CLEAR     42  41  96 N6        30.17R
BOWLING GREEN  CLEAR     46  41  82 N3        30.18R
GLASGOW        NOT AVBL
$$

KYZ024-025-028>034-038-045-046-053-220900-
NORTH CENTRAL KENTUCKY

CITY           SKY/WX    TMP DP  RH WIND       PRES   REMARKS
LOUISVILLE/SDF PTCLDY    47  40  76 N7        30.21R
LOUISVILLE/LOU CLEAR     45  39  79 N5        30.21R
FORT KNOX      PTCLDY    45  41  85 N7        30.18R
$$

KYZ035>037-039>044-047>052-055>060-089>105-220900-
NORTHEAST KENTUCKY

CITY           SKY/WX    TMP DP  RH WIND       PRES   REMARKS
LEXINGTON      PTCLDY    44  39  82 N3        30.18R
COVINGTON      CLOUDY    47  36  65 N7        30.19R
FRANKFORT      PTCLDY    44  39  82 N5        30.18R
$$

KYZ054-064>069-076>088-106>120-220900-
SOUTHEAST KENTUCKY

CITY           SKY/WX    TMP DP  RH WIND       PRES   REMARKS
JACKSON        CLEAR     43  39  86 VRB3      30.13S
LONDON         CLOUDY    48  41  76 N7        30.14R
SOMERSET       CLEAR     45  39  81 NE5       30.16R
MIDDLESBORO    NOT AVBL
MONTICELLO     SUNNY     47  42  82 NE5       30.16R
$$




USA.gov is the U.S. government's official web portal to all federal, state and local government web resources and services.